Location: Borotín
(49.5055°N, 14.6142°E)
Time: 12:07:08
(UTC+00:00)

IDEFIX/ARIANE 42P - Pass Details

Date: 27 May 2022
Orbit: 785 x 802 km, 98.5° (Epoch: 26 June)

Event Time Altitude Azimuth Distance (km) Brightness Sun altitude
Rises 01:08:41 0° 17° (NNE) 3,326 7.5 -13.6°
Reaches altitude 10° 01:11:04 10° 20° (NNE) 2,391 6.4 -13.4°
Maximum altitude 01:16:18 62° 101° (ESE) 906 3.0 -12.9°
Enters shadow 01:21:07 12° 181° (S) 2,227 4.4 -12.5°
